Preview of NWS' New Version of Forecast
This preview is not operational and should not be used for support decisions.

Regional Weather Roundup (RWR)

Issued by National Weather Service (NWS)

                            
000
ASUS42 KTBW 211918
RWRFL 
FLORIDA REGIONAL WEATHER ROUNDUP
NATIONAL WEATHER SERVICE TAMPA BAY RUSKIN FL
300 PM EDT WED AUG 21 2019

NOTE: "FAIR" INDICATES FEW OR NO CLOUDS BELOW 12,000 FEET WITH NO
SIGNIFICANT WEATHER AND/OR OBSTRUCTIONS TO VISIBILITY.

FLZ001>010-012>015-112-114-115-212000-
PANHANDLE FLORIDA
  
CITY           SKY/WX    TMP DP  RH WIND       PRES   REMARKS
PENSACOLA      FAIR      88  78  72 S10       30.06F HX 101           
PENSACOLA NAS  PTSUNNY   87  78  74 VRB7      30.06F HX 100           
MILTON NAS     PTSUNNY   78  74  87 VRB7G16   30.09R THUNDER          
CRESTVIEW      FAIR      87  78  74 VRB3      30.08F HX 100           
DUKE FIELD     FAIR      90  72  54 CALM      30.06F HX  96           
VALPARAISO     FAIR      90  73  57 S12       30.06F HX  98           
MARY ESTHER    PTSUNNY   87  76  70 S8        30.05F HX  98           
TRI COUNTY     FAIR      90  74  59 NE3       30.06  HX  99           
PANAMA CITY    RAIN      88  73  61 CALM      30.05F HX  95           
TYNDALL AFB    MOSUNNY   87  76  69 S12       30.05F HX  98           
APALACHICOLA   FAIR      88  76  67 S12       30.07F HX  99           

STATION/POSITION SKY/WX   TEMP    WIND        PRES    WAVE   SWELL
                          AIR SEA DIR/SP/G            HT/PER HT/PER
                          (F)     (DEG/KT/KT) (MB)    (FT/S) (FT/S)
30.1N   87.6W              84 85  110/  6/  8 1018.0F   2/ 7   2/ 7
29.2N   88.2W              84 86   90/  6/  8 1018.1F   2/ 7   2/ 7
28.8N   86.0W                 85  110/ 10/ 10 1017.7F   2/ 5   2/ 5
PANAMA CITY BEAC           84 87  180/  9/ 10 1018.9F
TOWER C                    80      30/  1/  2 1018.7F
28.5N   84.5W              84     120/ 10/ 10 1018.8F   2/ 4   2/ 5

$$
FLZ011-016>038-118-127-128-134-139-239-212000-
NORTH FLORIDA
  
CITY           SKY/WX    TMP DP  RH WIND       PRES   REMARKS
MARIANNA       FAIR      89  74  60 CALM      30.06F HX  98           
TALLAHASSEE    PTSUNNY   89  75  63 S10       30.07F HX  99           
PERRY          FAIR      91  77  63 SW5       30.08F HX 104           
LIVE OAK       MOSUNNY   90  73  58 CALM      30.08F HX  98           
CROSS CITY     FAIR      91  72  53 E5        30.08S HX  98           
LAKE CITY      FAIR      90  68  48 S6        30.09F                  
GAINESVILLE    FAIR      90  71  53 VRB5      30.11F HX  96           
WILLISTON      PTSUNNY   89  73  59 SE5       30.08F HX  97           
MAYPORT NAS    FAIR      89  75  63 SE10      30.10F HX  99           
JACKSONVILLE   PTSUNNY   91  74  57 S8        30.08F HX 100           
JAX NAS        PTSUNNY   90  70  51 E6        30.10F HX  95           
JAX CECIL      PTSUNNY   91  73  55 SE6       30.09F HX 100           
FERNANDINA BEA FAIR      87  78  72 MISG      30.11S HX 100           
ST AUGUSTINE   FAIR      87  77  72 E10       30.10F HX  99           
PALM COAST     SUNNY     91  72  52 SE12G17   30.09F HX  98           

STATION/POSITION SKY/WX   TEMP    WIND        PRES    WAVE   SWELL
                          AIR SEA DIR/SP/G            HT/PER HT/PER
                          (F)     (DEG/KT/KT) (MB)    (FT/S) (FT/S)
SHELL POINT      NOT AVBL
KEATON BEACH               83     200/ 10/ 11 1019.0F
CEDAR KEY                  85     250/  3/  5 1018.6F
FERNANDINA                 93 82              1020.1F
30.7N   81.3W                 85                N/A     2/11
MAYPORT                    86 82  120/  9/ 13 1019.9F
31.4N   80.9W              83 85  210/  6/  8 1019.7F   2/ 7   2/ 7
ST AUGUSTINE               83 82  100/  7/  7 1019.2F

$$
FLZ040-043>046-052-053-057-058-063-144-212000-
INTERIOR CENTRAL FLORIDA
  
CITY           SKY/WX    TMP DP  RH WIND       PRES   REMARKS
OCALA          FAIR      91  71  51 SE8       30.08F HX  97           
LEESBURG       FAIR      92  72  51 S6        30.08F HX  99           
SANFORD        FAIR      92  72  51 SE12      30.07F HX  99           
ORLANDO EXEC   PTSUNNY   90  71  53 E7        30.07F HX  96           
ORLANDO INTL   FAIR      92  70  48 E8        30.06F HX  97           
KISSIMMEE      FAIR      92  73  53 SE8       30.07F HX 100           
WINTER HAVEN   FAIR      93  70  46 E6        30.07F HX  99           
LAKELAND       PTSUNNY   91  73  55 E7        30.07F HX 100           
SEBRING        FAIR      91  73  54 SE6       30.06F HX  98           
OKEECHOBEE     FAIR      91  72  52 E5        30.05F HX  98           

$$
FLZ041-047-054-059-064-141-147-212000-
EAST CENTRAL FLORIDA
  
CITY           SKY/WX    TMP DP  RH WIND       PRES   REMARKS
ORMOND BEACH   MOSUNNY   90  73  58 SE8       30.09F HX  98           
DAYTONA BEACH  FAIR      90  72  55 E10       30.09F HX  97           
DELAND         FAIR      93  72  49 SE10      30.06F HX 100           
NEW SMYRNA BEA MOSUNNY   90  73  58 E14       30.09F HX  98           
JFK SPACE CTR  FAIR      90  54  29 E8        30.08F                  
TITUSVILLE     MOSUNNY   93  73  52 SE7       30.09F HX 102           
CAPE CANAVERAL FAIR      88  79  74 CALM      30.07F HX 102           
PATRICK AFB    FAIR      87  78  73 E7        30.07F HX 100           
MELBOURNE      FAIR      89  76  65 E12       30.07F HX 100           
VERO BEACH     FAIR      89  74  60 E12       30.08S HX  98           
FT PIERCE      FAIR      88  73  61 E9        30.08R HX  95           
STUART         MOSUNNY   88  73  62 E9        30.09S HX  96           

STATION/POSITION SKY/WX   TEMP    WIND        PRES    WAVE   SWELL
                          AIR SEA DIR/SP/G            HT/PER HT/PER
                          (F)     (DEG/KT/KT) (MB)    (FT/S) (FT/S)
28.5N   80.2W              84 85  100/  6/  8 1018.7F   2/11   2/11
28.9N   78.5W              84 87  100/  8/ 10 1019.6F
TRIDENT PIER               86 82   90/  6/  9 1020.3F
28.4N   80.5W                 84                N/A     2/10
27.5N   80.2W                 86                N/A     2/11

$$
FLZ050-056-061-142-242-148-248-149-249-151-251-155-255-
160-260-212000-
WEST CENTRAL FLORIDA
  
CITY           SKY/WX    TMP DP  RH WIND       PRES   REMARKS
CRYSTAL RIVER  FAIR      91  72  52 CALM      30.06F HX  98           
INVERNESS      PTSUNNY   91  75  59 CALM      30.08F HX 102           
BROOKSVILLE    FAIR      92  72  51 E7        30.07F HX  99           
CLEARWATER AIR FAIR      90  70  51 E6        30.05F HX  95           
ST PETE CLEARW FAIR      92  72  51 E9        30.05F HX  99           
TAMPA INTL     FAIR      92  70  48 SE7       30.05F HX  97           
PLANT CITY     FAIR      93  75  55 E5        30.08F HX 104           
MACDILL AFB    FAIR      90  73  58 E3        30.05F HX  98           
PETER O KNIGHT CLOUDY    91  73  55 CALM      30.05F HX 100           
ST PETERSBURG  FAIR      90  74  59 NE5       30.04F HX  99           
SARASOTA       PTSUNNY   91  72  53 SE9       30.03F HX  98           
VENICE         FAIR      91  75  59 SW14      30.05F HX 102           

STATION/POSITION SKY/WX   TEMP    WIND        PRES    WAVE   SWELL
                          AIR SEA DIR/SP/G            HT/PER HT/PER
                          (F)     (DEG/KT/KT) (MB)    (FT/S) (FT/S)
27.3N   84.2W                 85                N/A     2/ 4
CLEARWATER BEACH           89 87   80/ 10/ 14 1018.1F
MIDDLE TAMPA BAY           89     130/  9/ 10 1018.2F
VENICE                     85 85  200/ 12/ 13 1017.5F

$$
FLZ066-069-070-075>078-162-262-165-265-212000-
SOUTHWEST FLORIDA AND KEYS
  
CITY           SKY/WX    TMP DP  RH WIND       PRES   REMARKS
PUNTA GORDA    FAIR      91  71  51 E7        30.06F HX  97           
FT MYERS       FAIR      92  70  48 VRB5      30.04F HX  97           
SOUTHWEST INTL FAIR      92  69  47 VRB6      30.05S HX  97           
NAPLES         PTSUNNY   90  76  63 W10       30.04F HX 101           
MARCO ISLAND   LGT RAIN N/A N/A N/A SW3         N/A                   
IMMOKALEE      FAIR      93  72  49 SE7       30.03F HX 100           
MARATHON       FAIR      86  76  71 S7        30.05F HX  96           
KEY WEST NAS   PTSUNNY   90  76  63 E10       30.04F HX 101           
KEY WEST INTL  FAIR      88  76  67 SE10      30.04F HX  99           

STATION/POSITION SKY/WX   TEMP    WIND        PRES    WAVE   SWELL
                          AIR SEA DIR/SP/G            HT/PER HT/PER
                          (F)     (DEG/KT/KT) (MB)    (FT/S) (FT/S)
NAPLES                     90 87              1017.8F
26.0N   85.6W              85 86  110/  4/  6 1017.4F   2/ 5   2/ 5
DRY TORTUGAS               83      70/  9/ 10 1017.6F
SAND KEY                   83     180/ 12/ 16 1016.6F
SOMBRERO KEY               82     100/  7/ 10 1017.9F
LONG KEY                   86                 1016.7F

$$
FLZ067-068-071>074-168-172>174-212000-
SOUTHEAST FLORIDA 
  
CITY           SKY/WX    TMP DP  RH WIND       PRES   REMARKS
W PALM BEACH   FAIR      88  73  61 E10G17    30.07F HX  95           
FT LAUDER-EXEC FAIR      89  70  53 E13       30.06S                  
FT LAUDERDALE  FAIR      88  72  58 SE9G20    30.05F                  
POMPANO BEACH  FAIR      89  72  56 E13       30.07R HX  96           
PEMBROKE PINES FAIR      89  71  55 E13       30.07S HX  95           
OPA LOCKA      FAIR      88  72  58 NE10      30.06S                  
MIAMI          FAIR      89  70  53 E10       30.05S                  
WEST KENDALL   PTSUNNY   89  75  63 E12G18    30.05S HX  99           
HOMESTEAD      FAIR      87  73  62 E9        30.04S HX  95           

STATION/POSITION SKY/WX   TEMP    WIND        PRES    WAVE   SWELL
                          AIR SEA DIR/SP/G            HT/PER HT/PER
                          (F)     (DEG/KT/KT) (MB)    (FT/S) (FT/S)
VIRGINIA KEY               85 89   70/  6/ 11 1017.5F
LAKE WORTH                 85 86   80/  7/  9 1019.6S
FOWEY ROCKS                84 86  100/ 12/ 14 1018.0F
SETTLEMENT POINT           80     200/  2/  3 1018.5F

$$